Torna al catalogo

UPM/LBSAT

AttivoScienzaSSO
NORAD 23607·PAYLOAD·🇪🇸 Spain

Lanciato Jul 7, 1995 da Guiana Space Centre

Loading…

Prossimi Passaggi (prossime 24 ore)

TLE

AggiornatoSource: Space-Track

Epoca: Sep 14, 2026, 09:30 UTC

1 23607U 95033C   26257.39640018  .00000712  00000-0  90589-4 0  9996
2 23607  98.3173 232.6833 0004270 220.4687 139.6210 14.84924991679218

Traccia UPM/LBSAT in tempo reale con AllMySat

Download on the App Store